#timestamp,LO_Frequency,Hit,StdDev 
1567029615.4,286046994.2,N
1567029635.2,286046996.9,N
1567029655.1,286046998.0,N
1567029656.0,286047011.9,N
1567029675.8,286046992.7,N
1567029695.6,286046993.2,N
1567029715.5,286046987.4,N
1567029735.3,286046986.0,N
1567029755.2,286046986.2,N
1567029775.9,286046986.3,N
1567029795.7,286046984.1,N
1567029815.6,286046984.1,N
1567029835.4,286046990.5,N
1567029855.2,286046992.2,N
1567029875.1,286046997.4,N
1567029876.0,286046997.4,N
1567029895.8,286047000.4,N
1567029915.7,286047000.9,N
1567029935.5,286046998.5,N
1567029955.3,286047001.1,N
1567029975.2,286046999.4,N
1567029995.0,286047001.4,N
1567029995.9,286047001.4,N
1567030015.8,286047002.3,N
1567030035.6,286047002.6,N
1567030055.4,286047001.4,N
1567030075.3,286047000.0,N
1567030095.1,286047002.7,N
1567030115.8,286046999.7,N
1567030135.7,286047000.3,N
1567030155.5,286046999.7,N
1567030175.3,286047005.4,N
1567030195.2,286047005.0,N
1567030215.0,286047006.5,N
1567030215.9,286047006.5,N
1567030235.8,286047005.0,N
1567030255.6,286047001.3,N
1567030275.4,286047002.2,N
1567030295.3,286047002.0,N
1567030315.1,286047004.3,N
1567030335.9,286047006.9,N
1567030355.7,286047008.4,N
1567030375.5,286047010.6,N
1567030395.4,286047008.9,N
1567030415.2,286047005.1,N
1567030435.0,286047007.4,N
1567030435.9,286047007.4,N
1567030455.8,286047006.5,N
1567030475.6,286047006.2,N
1567030495.5,286047011.7,Y
1567030515.3,286047012.0,P
1567030535.1,286047009.3,N
1567030555.9,286047011.5,P
1567030575.7,286047013.0,Y
1567030595.5,286047006.3,P
1567030615.4,286047008.5,P
1567030635.2,286047011.5,P
1567030655.1,286047010.6,Y
1567030656.0,286047010.6,P
1567030675.8,286046999.7,N
1567030695.6,286047004.3,N
1567030715.5,286047004.2,N
1567030735.3,286047002.9,N
1567030755.2,286047004.8,N
1567030775.9,286047005.3,N
1567030795.7,286047004.3,N
1567030815.6,286047005.4,N
1567030835.4,286047005.7,N
1567030855.2,286047006.6,N
1567030875.1,286047008.3,Y
1567030876.0,286047008.3,P
1567030895.8,286047003.2,N
1567030915.7,286047002.9,N
1567030935.5,286047006.3,N
1567030955.3,286047010.5,Y
1567030975.2,286047007.1,P
1567030995.0,286047008.9,P
1567030995.9,286047008.9,P
1567031015.8,286047010.0,Y
1567031035.6,286047004.2,P
1567031055.4,286047001.3,N
1567031075.3,286047002.8,N
1567031095.1,286047003.0,N
1567031096.0,286047003.0,N
1567031115.8,286047003.4,N
1567031135.7,286047003.0,N
1567031155.5,286046999.8,N
1567031175.3,286046999.9,N
1567031195.2,286047002.4,N
1567031215.0,286047002.8,N
1567031215.9,286047002.8,N
1567031235.8,286047004.4,N
1567031255.6,286047006.0,Y
1567031275.4,286047002.0,P
1567031295.3,286047005.5,P
1567031315.1,286047005.7,P
1567031335.9,286047007.6,Y
1567031355.7,286047007.6,P
1567031375.5,286047002.9,N
1567031395.4,286047005.4,N
1567031415.2,286047005.3,Y
1567031435.0,286047000.6,P
1567031436.0,286047000.6,N
1567031455.8,286047000.8,N
1567031475.6,286047001.1,N
1567031495.5,286046998.5,N
1567031515.3,286046998.5,N
1567031535.1,286046998.3,N
1567031555.9,286047000.4,N
1567031575.7,286047001.3,N
1567031595.6,286047000.2,N
1567031615.4,286047002.6,N
1567031635.2,286047000.1,N
1567031655.1,286047003.7,N
1567031656.0,286047003.7,N
1567031675.8,286047002.4,N
1567031695.6,286047001.7,N
1567031715.5,286047001.8,N
1567031735.3,286047004.5,N
1567031755.2,286047005.6,N
1567031775.9,286047003.3,N
1567031795.7,286047003.1,N
1567031815.6,286047003.2,N
1567031835.4,286047005.4,N
1567031855.2,286047004.1,N
1567031875.1,286047004.6,N
1567031876.0,286047004.6,N
1567031895.8,286047006.7,Y
1567031915.7,286047006.8,P
1567031935.5,286047006.5,N
1567031955.3,286047004.9,N
1567031975.2,286047006.5,Y
1567031995.0,286047000.0,P
1567031995.9,286047000.0,N
1567032015.8,286047002.1,N
1567032035.6,286047001.7,N
1567032055.4,286047003.4,N
1567032075.3,286047005.5,Y
1567032095.1,286047005.6,P
1567032115.8,286047005.7,P
1567032135.7,286047003.7,N
1567032155.5,286047004.1,N
1567032175.4,286047003.0,N
1567032195.2,286047005.2,Y
1567032215.0,286047002.4,P
1567032215.9,286047002.4,N
1567032235.8,286047001.8,N
1567032255.6,286047003.4,Y
1567032275.5,286047001.3,P
1567032295.3,286047005.4,P
1567032315.1,286047006.9,P
1567032335.9,286047006.3,N
1567032355.7,286047006.9,Y
1567032375.6,286047001.8,P
1567032395.4,286047006.8,P
1567032415.2,286047009.2,P
1567032435.1,286047010.8,Y
1567032436.0,286047010.8,P
1567032455.8,286047000.9,N
1567032475.7,286046996.6,N
1567032495.2,286046998.0,N
1567032515.0,286046995.3,N
1567032515.9,286046995.3,N
1567032535.7,286046991.8,N
1567032555.6,286046990.2,N
1567032575.4,286046988.9,N
1567032595.3,286046991.2,N
1567032615.1,286046987.4,N
1567032616.0,286046987.4,N
1567032635.8,286046985.0,N
1567032655.7,286046981.0,N
1567032675.5,286046983.3,N
1567032695.4,286046979.1,N
1567032715.2,286046977.4,N
1567032735.0,286046976.1,N
1567032735.9,286046976.1,N
1567032755.8,286046973.5,N
1567032775.6,286046976.7,N
1567032795.4,286046973.8,N
1567032815.3,286046971.3,N
1567032835.1,286046975.8,N
1567032855.9,286046977.1,N
1567032875.7,286046976.9,N
1567032895.5,286046977.1,N
1567032915.4,286046976.9,N
1567032935.2,286046976.6,N
1567032955.0,286046978.9,N
1567032955.9,286046978.9,N
1567032975.8,286046980.9,N
1567032995.6,286046984.3,N
1567033015.5,286046986.0,N
1567033035.3,286046990.0,N
1567033055.1,286046990.9,N
1567033075.9,286046991.9,N
1567033095.7,286046995.6,N
1567033115.5,286046995.1,N
1567033135.4,286046997.0,N
1567033155.2,286046998.7,N
1567033175.1,286046999.5,N
1567033176.0,286046999.5,N
1567033195.8,286047001.8,N
